OneWeb SL0170

operational
NORAD ID: 48067 Int'l Des: 2021-025 Owner: ONEWEBN Country: UK Constellation: oneweb
LEOCIRCULARPOLARONEWEB_TYPE

Über OneWeb SL0170

Beschreibung wird geladen...

Live-Position

3D-Globus wird geladen...

Nächste Überflüge

Höhenverlauf

Altitude vs Time

uPlot chart will show altitude changes over time

Zweizeiliger Elementsatz

1 48067U 21025AB 26034.38923744 .00000283 00000-0 73967-3 0 9998
2 48067 87.9026 346.8170 0001352 75.8805 284.2474 13.13471143235988
Epoch: 3. Feb. 2026 • Age: 22 hours

Aktueller Status

Höhe 1228.4 km
Geschwindigkeit 7.24 km/s
Subsatellitenpunkt -46.87°S, 104.3°E
Startdatum 25. März 2021
Alter 4.8 years
Typ internet

Technische Details

Klassifizierung Payload
Masse 148.00 kg
Trockenmasse 140.00 kg
Gesamtmasse 148.00 kg
Länge 1.30 m
Durchmesser 1.00 m
Spannweite 5.00 m
Form Trapezoid+2 pan
Hersteller ONEWUS
Bus-Typ ARROW
Phasenstatus In Orbit
Besitzer/Staat ONEWEBN/UK

Große Konstellationen

Loading constellations...